| time (UTC) | temp F | wind direction | speed MPH | gust MPH | rain 1hr in | rain 24hr in | rain mn in | humidity % | barometer mb |
| 20260502123059 | 72 | 61 | 7.0 | 15.0 | 0.00 | 0.00 | 0.00 | 50 | 1019.8 |
| 20260502121534 | 73 | 101 | 8.0 | 15.0 | 0.00 | 0.00 | 0.00 | 51 | 1019.7 |
| 20260502114536 | 72 | 90 | 7.0 | 14.0 | 0.00 | 0.00 | 0.00 | 53 | 1020.2 |
| 20260502113044 | 72 | 115 | 5.0 | 11.0 | 0.00 | 0.00 | 0.00 | 53 | 1020.3 |
| 20260502111541 | 71 | 79 | 6.0 | 13.0 | 0.00 | 0.00 | 0.00 | 54 | 1020.3 |
| 20260502110035 | 71 | 115 | 7.0 | 13.0 | 0.00 | 0.00 | 0.00 | 53 | 1020.5 |
| 20260502104538 | 71 | 160 | 7.0 | 14.0 | 0.00 | 0.00 | 0.00 | 53 | 1020.6 |
| 20260502103037 | 71 | 121 | 6.0 | 15.0 | 0.00 | 0.00 | 0.00 | 54 | 1020.5 |
| 20260502101540 | 70 | 131 | 5.0 | 12.0 | 0.00 | 0.00 | 0.00 | 54 | 1020.7 |
| 20260502071535 | 66 | 74 | 1.0 | 4.0 | 0.00 | 0.00 | 0.00 | 62 | 1021.1 |
| 20260502070034 | 66 | 0 | 0.0 | 0.0 | 0.00 | 0.00 | 0.00 | 63 | 1021.1 |
| 20260502064545 | 66 | 0 | 0.0 | 0.0 | 0.00 | 0.00 | 0.00 | 64 | 1021.3 |
| 20260502063037 | 66 | 0 | 0.0 | 0.0 | 0.00 | 0.00 | 0.00 | 64 | 1021.3 |
| 20260502061536 | 65 | 0 | 0.0 | 0.0 | 0.00 | 0.00 | 0.00 | 64 | 1021.2 |
| 20260502060036 | 65 | 0 | 0.0 | 0.0 | 0.00 | 0.00 | 0.00 | 64 | 1020.9 |
| 20260502054536 | 65 | 0 | 0.0 | 0.0 | 0.00 | 0.00 | 0.00 | 64 | 1020.9 |
| 20260502053037 | 65 | 0 | 0.0 | 0.0 | 0.00 | 0.00 | 0.00 | 64 | 1020.9 |
| 20260502051537 | 65 | 0 | 0.0 | 3.0 | 0.00 | 0.00 | 0.00 | 64 | 1020.8 |
| 20260502050043 | 65 | 290 | 1.0 | 3.0 | 0.00 | 0.00 | 0.00 | 64 | 1020.8 |
| 20260502044542 | 65 | 0 | 1.0 | 4.0 | 0.00 | 0.00 | 0.00 | 64 | 1020.7 |
| 20260502043038 | 65 | 0 | 0.0 | 1.0 | 0.00 | 0.00 | 0.00 | 63 | 1020.9 |
| 20260502041534 | 65 | 0 | 1.0 | 3.0 | 0.00 | 0.00 | 0.00 | 63 | 1020.7 |
| 20260502040040 | 65 | 0 | 0.0 | 1.0 | 0.00 | 0.00 | 0.00 | 63 | 1021.1 |
| 20260502034536 | 65 | 150 | 0.0 | 3.0 | 0.00 | 0.00 | 0.00 | 64 | 1021.0 |
| 20260502033037 | 65 | 0 | 0.0 | 0.0 | 0.00 | 0.00 | 0.00 | 64 | 1021.0 |
| 20260502031533 | 65 | 0 | 0.0 | 0.0 | 0.00 | 0.00 | 0.00 | 64 | 1021.1 |
| 20260502030033 | 65 | 0 | 0.0 | 0.0 | 0.00 | 0.00 | 0.00 | 64 | 1021.2 |
| 20260502024534 | 65 | 0 | 0.0 | 0.0 | 0.00 | 0.00 | 0.00 | 64 | 1021.2 |
| 20260502023037 | 65 | 0 | 0.0 | 0.0 | 0.00 | 0.00 | 0.00 | 64 | 1021.2 |
| 20260502021536 | 65 | 0 | 0.0 | 0.0 | 0.00 | 0.00 | 0.00 | 64 | 1021.1 |
| 20260502020036 | 65 | 0 | 0.0 | 0.0 | 0.00 | 0.00 | 0.00 | 64 | 1021.3 |
| 20260502014536 | 65 | 0 | 0.0 | 0.0 | 0.00 | 0.00 | 0.00 | 64 | 1021.4 |
| 20260502013032 | 65 | 0 | 0.0 | 0.0 | 0.00 | 0.00 | 0.00 | 64 | 1021.5 |
| 20260502011540 | 65 | 0 | 0.0 | 3.0 | 0.00 | 0.00 | 0.00 | 64 | 1021.6 |
| 20260502010035 | 65 | 0 | 0.0 | 3.0 | 0.00 | 0.00 | 0.00 | 64 | 1021.7 |
| 20260502004532 | 66 | 124 | 1.0 | 4.0 | 0.00 | 0.00 | 0.00 | 64 | 1021.9 |
| 20260502003034 | 66 | 0 | 0.0 | 0.0 | 0.00 | 0.00 | 0.00 | 64 | 1022.2 |
| 20260502001545 | 66 | 0 | 0.0 | 0.0 | 0.00 | 0.00 | 0.00 | 64 | 1022.6 |
| 20260502000034 | 66 | 0 | 0.0 | 5.0 | 0.00 | 0.00 | 0.00 | 64 | 1022.7 |
| 20260501234538 | 66 | 0 | 0.0 | 5.0 | 0.00 | 0.00 | 0.00 | 64 | 1022.8 |
| 20260501233037 | 66 | 0 | 0.0 | 3.0 | 0.00 | 0.00 | 0.00 | 64 | 1022.9 |
| 20260501231536 | 66 | 141 | 1.0 | 4.0 | 0.00 | 0.00 | 0.00 | 64 | 1023.0 |
| 20260501230032 | 66 | 0 | 0.0 | 3.0 | 0.00 | 0.00 | 0.00 | 64 | 1022.9 |
| 20260501224534 | 66 | 131 | 1.0 | 3.0 | 0.00 | 0.00 | 0.00 | 64 | 1022.9 |
| 20260501223037 | 66 | 139 | 0.0 | 4.0 | 0.00 | 0.00 | 0.00 | 64 | 1022.9 |
| 20260501221542 | 66 | 0 | 0.0 | 0.0 | 0.00 | 0.00 | 0.00 | 64 | 1022.9 |
| 20260501220041 | 66 | 0 | 1.0 | 4.0 | 0.00 | 0.00 | 0.00 | 64 | 1022.8 |
| 20260501214542 | 66 | 114 | 3.0 | 7.0 | 0.00 | 0.00 | 0.00 | 64 | 1022.7 |
| 20260501213034 | 66 | 141 | 2.0 | 7.0 | 0.00 | 0.00 | 0.00 | 64 | 1022.8 |
| 20260501211538 | 66 | 129 | 1.0 | 6.0 | 0.00 | 0.00 | 0.00 | 64 | 1023.0 |
| 20260501210036 | 66 | 0 | 2.0 | 6.0 | 0.00 | 0.00 | 0.00 | 64 | 1023.1 |
| 20260501204536 | 66 | 0 | 2.0 | 7.0 | 0.00 | 0.00 | 0.00 | 64 | 1023.0 |
| 20260501203035 | 66 | 122 | 2.0 | 7.0 | 0.00 | 0.00 | 0.00 | 64 | 1022.9 |
| 20260501201536 | 66 | 126 | 2.0 | 6.0 | 0.00 | 0.00 | 0.00 | 63 | 1022.8 |
| 20260501200038 | 66 | 126 | 3.0 | 8.0 | 0.00 | 0.00 | 0.00 | 62 | 1022.5 |
| 20260501194540 | 67 | 126 | 3.0 | 7.0 | 0.00 | 0.00 | 0.00 | 62 | 1022.3 |
| 20260501193039 | 67 | 0 | 3.0 | 9.0 | 0.00 | 0.00 | 0.00 | 62 | 1022.3 |
| 20260501191550 | 67 | 138 | 3.0 | 10.0 | 0.00 | 0.00 | 0.00 | 61 | 1022.2 |
| 20260501190046 | 67 | 59 | 5.0 | 11.0 | 0.00 | 0.00 | 0.00 | 60 | 1021.9 |
| 20260501184535 | 68 | 157 | 4.0 | 11.0 | 0.00 | 0.00 | 0.00 | 59 | 1021.7 |
| 20260501183034 | 68 | 148 | 4.0 | 10.0 | 0.00 | 0.00 | 0.00 | 58 | 1021.6 |
| 20260501181537 | 69 | 126 | 4.0 | 11.0 | 0.00 | 0.00 | 0.00 | 57 | 1021.4 |
| 20260501180040 | 69 | 99 | 5.0 | 11.0 | 0.00 | 0.00 | 0.00 | 56 | 1021.3 |
| 20260501174535 | 70 | 150 | 6.0 | 13.0 | 0.00 | 0.00 | 0.00 | 56 | 1021.1 |
| 20260501173051 | 70 | 120 | 6.0 | 13.0 | 0.00 | 0.00 | 0.00 | 55 | 1020.9 |
| 20260501171536 | 71 | 88 | 6.0 | 10.0 | 0.00 | 0.00 | 0.00 | 54 | 1020.9 |
| 20260501170037 | 71 | 107 | 8.0 | 14.0 | 0.00 | 0.00 | 0.00 | 54 | 1020.8 |
| 20260501164544 | 72 | 136 | 5.0 | 16.0 | 0.00 | 0.00 | 0.00 | 53 | 1020.7 |
| 20260501163036 | 72 | 122 | 8.0 | 14.0 | 0.00 | 0.00 | 0.00 | 52 | 1020.6 |
| 20260501161533 | 72 | 112 | 6.0 | 14.0 | 0.00 | 0.00 | 0.00 | 52 | 1020.6 |
| 20260501160034 | 72 | 120 | 9.0 | 13.0 | 0.00 | 0.00 | 0.00 | 52 | 1020.4 |
| 20260501154533 | 73 | 144 | 7.0 | 14.0 | 0.00 | 0.00 | 0.00 | 51 | 1020.4 |
| 20260501153102 | 73 | 109 | 6.0 | 15.0 | 0.00 | 0.00 | 0.00 | 51 | 1020.3 |
| 20260501151538 | 73 | 105 | 7.0 | 15.0 | 0.00 | 0.00 | 0.00 | 50 | 1020.3 |
| 20260501150036 | 72 | 97 | 6.0 | 17.0 | 0.00 | 0.00 | 0.00 | 52 | 1020.2 |
| 20260501144545 | 72 | 111 | 6.0 | 12.0 | 0.00 | 0.00 | 0.00 | 53 | 1020.4 |
| 20260501143037 | 73 | 119 | 6.0 | 13.0 | 0.00 | 0.00 | 0.00 | 52 | 1020.3 |